Weather History for Juliana Airport, St. Martin

Change the Weather History Date:

Saturday, February 2, 2013

  Actual Average Record
Temperature  
Mean Temperature 78 °F -  
Max Temperature 82 °F 81 °F 86 °F (1998)
Min Temperature 73 °F 72 °F 71 °F (1999)
Cooling Degree Days 12    
Growing Degree Days 28 (Base 50)    
Moisture  
Dew Point 64 °F    
Average Humidity 60    
Maximum Humidity 73    
Minimum Humidity 48    
Precipitation  
Precipitation 0.00 in 0.06 in - ()
Sea Level Pressure  
Sea Level Pressure 30.02 in    
Wind  
Wind Speed 8 mph ()    
Max Wind Speed 15 mph    
Max Gust Speed 24 mph    
Visibility 7.2 miles    
Events      
Averages and records for this station are not official NWS values.
T = Trace of Precipitation, MM = Missing Value Source: Averaged Metar Reports

Daily Weather History Graph

Daily Weather History Graph

Search for Another Location

Airport:

Trip Planner

Search our weather history database for the weather conditions in past years. The results will help you decide how hot, cold, wet, or windy it might be!

Date:

Astronomy

Feb. 02, 2013 Rise Set
Actual Time 6:44 AM AST 6:07 PM AST
Civil Twilight 6:22 AM AST 6:30 PM AST
Nautical Twilight 5:56 AM AST 6:56 PM AST
Astronomical Twilight 5:30 AM AST 7:22 PM AST
Moon No Moon Rise 10:57 AM AST (2/2)
Length of Visible Light 12h 08m
Length of Day
11h 22m
Waning Gibbous, 60% of the Moon is Illuminated
Feb 2
Waning Gibbous
Feb 3
Last Quarter
Feb 10
New
Feb 17
First Quarter
Feb 25
Full

Hourly Weather History & Observations

Time (AST) Temp. Heat Index Dew Point Humidity Pressure Visibility Wind Dir Wind Speed Gust Speed Precip Events Conditions
12:00 AM 75.2 °F - 62.6 °F 65% 30.04 in 6.2 mi East 4.6 mph - N/A   Partly Cloudy
1:00 AM 75.2 °F - 60.8 °F 61% 30.04 in 6.2 mi East 6.9 mph - N/A   Partly Cloudy
2:00 AM 74 °F - 59 °F 50% 30.04 in 19 mi East 8.1 mph - -   Scattered Clouds
2:00 AM 75.2 °F - 59.0 °F 57% 30.04 in 6.2 mi East 8.1 mph - N/A   Partly Cloudy
3:00 AM 75.2 °F - 59.0 °F 57% 30.01 in 6.2 mi East 8.1 mph - N/A   Partly Cloudy
4:00 AM - - - N/A% 30.01 in 6.2 mi East 6.9 mph - N/A   Partly Cloudy
5:00 AM 75 °F - 64 °F 60% 30.01 in 19 mi East 9.2 mph - -   Partly Cloudy
5:00 AM 75.2 °F - 64.4 °F 69% 30.01 in 6.2 mi East 9.2 mph - N/A   Partly Cloudy
6:00 AM 73.4 °F - 64.4 °F 73% 30.01 in 6.2 mi East 6.9 mph - N/A   Partly Cloudy
7:00 AM 73.4 °F - 62.6 °F 69% 30.04 in 6.2 mi East 4.6 mph - N/A   Partly Cloudy
8:00 AM 78 °F - 62 °F 48% 30.06 in 40 mi ESE 5.8 mph - -   Scattered Clouds
8:00 AM 78.8 °F - 62.6 °F 57% 30.04 in 6.2 mi ESE 5.8 mph - N/A   Partly Cloudy
9:00 AM 78.8 °F - 66.2 °F 65% 30.06 in 6.2 mi ESE 9.2 mph - N/A   Partly Cloudy
10:00 AM 80.6 °F 82.7 °F 66.2 °F 61% 30.06 in 6.2 mi East 11.5 mph - N/A   Partly Cloudy
11:00 AM 80 °F - 66 °F 53% 30.06 in 40 mi SE 10.4 mph - -   Partly Cloudy
11:00 AM 80.6 °F 82.7 °F 66.2 °F 61% 30.06 in 6.2 mi SE 10.4 mph - N/A   Scattered Clouds
12:00 PM 80.6 °F 83.2 °F 68.0 °F 65% 30.04 in 6.2 mi ESE 11.5 mph 24.2 mph N/A   Scattered Clouds
1:00 PM 80.6 °F 82.7 °F 66.2 °F 61% 30.01 in 6.2 mi SE 15.0 mph - N/A   Partly Cloudy
2:00 PM 80 °F - 64 °F 50% 29.99 in 25 mi ESE 13.8 mph - -   Scattered Clouds
2:00 PM 78.8 °F - 64.4 °F 61% 29.98 in 6.2 mi ESE 13.8 mph - N/A   Partly Cloudy
3:00 PM 80.6 °F 82.3 °F 64.4 °F 58% 29.98 in 6.2 mi ESE 15.0 mph - N/A   Partly Cloudy
4:00 PM 80.6 °F 81.8 °F 62.6 °F 54% 29.98 in 6.2 mi East 10.4 mph - N/A   Partly Cloudy
5:00 PM 79 °F - 64 °F 50% 30.00 in 25 mi East 13.8 mph - -   Partly Cloudy
5:00 PM 78.8 °F - 64.4 °F 61% 29.98 in 6.2 mi East 13.8 mph - N/A   Scattered Clouds
6:00 PM 77.0 °F - 64.4 °F 65% 30.01 in 6.2 mi East 10.4 mph - N/A   Partly Cloudy
7:00 PM 77.0 °F - 62.6 °F 61% 30.01 in 6.2 mi East 11.5 mph - N/A   Partly Cloudy
8:00 PM 77 °F - 62 °F 51% 30.03 in 25 mi ESE 11.5 mph - -   Scattered Clouds
8:00 PM 77.0 °F - 62.6 °F 61% 30.01 in 6.2 mi East 10.4 mph - N/A   Partly Cloudy
9:00 PM 77.0 °F - 62.6 °F 61% 30.04 in 6.2 mi East 11.5 mph - N/A   Partly Cloudy
10:00 PM 77.0 °F - 64.4 °F 65% 30.04 in 6.2 mi East 11.5 mph - N/A   Partly Cloudy
11:00 PM 76 °F - 64 °F 58% 30.05 in 25 mi East 10.4 mph - -   Scattered Clouds
11:00 PM 77.0 °F - 64.4 °F 65% 30.04 in 6.2 mi East 10.4 mph - N/A   Partly Cloudy